TimeCDT,TemperatureF,Dew PointF,Humidity,Sea Level PressureIn,VisibilityMPH,Wind Direction,Wind SpeedMPH,Gust SpeedMPH,PrecipitationIn,Events,Conditions,WindDirDegrees,DateUTC
12:15 AM,68.0,62.6,83,30.21,9.0,Calm,Calm,-,N/A,,Clear,0,2013-07-16 05:15:00
12:35 AM,73.4,64.4,73,30.21,10.0,South,5.8,-,N/A,,Clear,190,2013-07-16 05:35:00
12:55 AM,75.2,66.2,73,30.21,10.0,South,5.8,-,N/A,,Clear,190,2013-07-16 05:55:00
1:15 AM,73.4,64.4,73,30.21,10.0,SSW,6.9,-,N/A,,Clear,200,2013-07-16 06:15:00
1:35 AM,73.4,64.4,73,30.21,10.0,South,4.6,-,N/A,,Clear,190,2013-07-16 06:35:00
1:55 AM,73.4,66.2,78,30.21,10.0,Calm,Calm,-,N/A,,Clear,0,2013-07-16 06:55:00
2:15 AM,73.4,64.4,73,30.20,10.0,Calm,Calm,-,N/A,,Partly Cloudy,0,2013-07-16 07:15:00
2:35 AM,73.4,66.2,78,30.20,10.0,South,5.8,-,N/A,,Clear,190,2013-07-16 07:35:00
2:55 AM,75.2,66.2,73,30.20,10.0,South,6.9,-,N/A,,Clear,190,2013-07-16 07:55:00
3:15 AM,73.4,66.2,78,30.19,10.0,South,9.2,-,N/A,,Clear,180,2013-07-16 08:15:00
3:35 AM,73.4,66.2,78,30.19,10.0,South,8.1,-,N/A,,Partly Cloudy,180,2013-07-16 08:35:00
3:55 AM,73.4,66.2,78,30.19,10.0,South,6.9,-,N/A,,Scattered Clouds,170,2013-07-16 08:55:00
4:15 AM,75.2,66.2,73,30.19,10.0,South,10.4,-,N/A,,Clear,180,2013-07-16 09:15:00
4:35 AM,73.4,66.2,78,30.19,10.0,South,6.9,-,N/A,,Clear,170,2013-07-16 09:35:00
4:55 AM,73.4,66.2,78,30.18,10.0,South,6.9,-,N/A,,Clear,190,2013-07-16 09:55:00
5:15 AM,73.4,66.2,78,30.19,3.0,SSW,6.9,29.9,N/A,,Mostly Cloudy,200,2013-07-16 10:15:00
5:35 AM,73.4,66.2,78,30.19,10.0,South,6.9,-,N/A,,Partly Cloudy,170,2013-07-16 10:35:00
5:55 AM,73.4,66.2,78,30.19,10.0,SSW,6.9,-,N/A,,Scattered Clouds,200,2013-07-16 10:55:00
6:15 AM,73.4,66.2,78,30.19,10.0,SSW,5.8,-,N/A,,Partly Cloudy,210,2013-07-16 11:15:00
6:35 AM,73.4,68.0,83,30.20,10.0,SSW,6.9,-,N/A,,Clear,210,2013-07-16 11:35:00
6:55 AM,73.4,68.0,83,30.20,10.0,SW,6.9,-,N/A,,Clear,220,2013-07-16 11:55:00
7:15 AM,75.2,68.0,78,30.20,10.0,SW,6.9,-,N/A,,Clear,220,2013-07-16 12:15:00
7:35 AM,75.2,68.0,78,30.20,10.0,SW,4.6,-,N/A,,Clear,230,2013-07-16 12:35:00
7:55 AM,77.0,69.8,78,30.20,10.0,SW,8.1,-,N/A,,Clear,220,2013-07-16 12:55:00
8:15 AM,77.0,69.8,78,30.20,10.0,SSW,9.2,-,N/A,,Clear,210,2013-07-16 13:15:00
8:35 AM,78.8,69.8,74,30.20,10.0,SW,9.2,-,N/A,,Partly Cloudy,220,2013-07-16 13:35:00
8:55 AM,78.8,71.6,78,30.20,10.0,SW,9.2,-,N/A,,Partly Cloudy,220,2013-07-16 13:55:00
9:15 AM,80.6,69.8,70,30.20,10.0,SW,10.4,-,N/A,,Partly Cloudy,220,2013-07-16 14:15:00
9:35 AM,80.6,69.8,70,30.19,10.0,SW,9.2,-,N/A,,Scattered Clouds,220,2013-07-16 14:35:00
9:55 AM,80.6,71.6,74,30.19,10.0,SSW,11.5,-,N/A,,Partly Cloudy,210,2013-07-16 14:55:00
10:15 AM,82.4,71.6,70,30.18,10.0,SW,12.7,17.3,N/A,,Clear,220,2013-07-16 15:15:00
10:35 AM,84.2,71.6,66,30.18,10.0,SSW,13.8,-,N/A,,Partly Cloudy,210,2013-07-16 15:35:00
10:55 AM,84.2,69.8,62,30.18,10.0,WSW,13.8,20.7,N/A,,Clear,240,2013-07-16 15:55:00
11:15 AM,84.2,69.8,62,30.18,10.0,WSW,11.5,16.1,N/A,,Partly Cloudy,240,2013-07-16 16:15:00
11:35 AM,84.2,71.6,66,30.17,10.0,WSW,10.4,-,N/A,,Scattered Clouds,250,2013-07-16 16:35:00
11:55 AM,84.2,69.8,62,30.17,10.0,WSW,11.5,-,N/A,,Partly Cloudy,250,2013-07-16 16:55:00
12:15 PM,86.0,69.8,58,30.17,10.0,SW,13.8,18.4,N/A,,Clear,230,2013-07-16 17:15:00
12:35 PM,87.8,69.8,55,30.17,10.0,SW,15.0,19.6,N/A,,Partly Cloudy,220,2013-07-16 17:35:00
12:55 PM,87.8,69.8,55,30.16,10.0,West,15.0,-,N/A,,Scattered Clouds,260,2013-07-16 17:55:00
1:15 PM,87.8,69.8,55,30.16,10.0,West,13.8,-,N/A,,Mostly Cloudy,260,2013-07-16 18:15:00
1:35 PM,87.8,69.8,55,30.15,10.0,WSW,13.8,18.4,N/A,,Mostly Cloudy,240,2013-07-16 18:35:00
1:55 PM,87.8,69.8,55,30.15,10.0,SW,16.1,-,N/A,,Scattered Clouds,230,2013-07-16 18:55:00
2:15 PM,89.6,69.8,52,30.15,7.0,WSW,13.8,-,N/A,,Scattered Clouds,240,2013-07-16 19:15:00
2:35 PM,87.8,68.0,52,30.15,10.0,SW,15.0,20.7,N/A,,Mostly Cloudy,230,2013-07-16 19:35:00
2:55 PM,89.6,68.0,49,30.14,10.0,WSW,13.8,-,N/A,,Scattered Clouds,240,2013-07-16 19:55:00
3:15 PM,89.6,68.0,49,30.14,10.0,WSW,13.8,19.6,N/A,,Partly Cloudy,240,2013-07-16 20:15:00
3:35 PM,89.6,68.0,49,30.14,10.0,SW,11.5,20.7,N/A,,Scattered Clouds,230,2013-07-16 20:35:00
3:55 PM,89.6,68.0,49,30.14,10.0,WSW,16.1,21.9,N/A,,Partly Cloudy,250,2013-07-16 20:55:00
4:15 PM,89.6,68.0,49,30.14,10.0,WSW,16.1,-,N/A,,Partly Cloudy,250,2013-07-16 21:15:00
4:35 PM,89.6,69.8,52,30.14,10.0,WSW,15.0,-,N/A,,Partly Cloudy,250,2013-07-16 21:35:00
4:55 PM,87.8,69.8,55,30.14,10.0,West,16.1,20.7,N/A,,Clear,260,2013-07-16 21:55:00
5:15 PM,87.8,69.8,55,30.13,10.0,WSW,16.1,-,N/A,,Clear,250,2013-07-16 22:15:00
5:35 PM,87.8,69.8,55,30.13,10.0,SW,10.4,-,N/A,,Clear,230,2013-07-16 22:35:00
5:55 PM,87.8,68.0,52,30.13,10.0,WSW,12.7,-,N/A,,Clear,240,2013-07-16 22:55:00
6:15 PM,87.8,68.0,52,30.13,10.0,WSW,10.4,-,N/A,,Clear,250,2013-07-16 23:15:00
6:35 PM,87.8,68.0,52,30.13,10.0,WSW,10.4,-,N/A,,Clear,250,2013-07-16 23:35:00
6:55 PM,86.0,68.0,55,30.14,10.0,SW,11.5,-,N/A,,Clear,230,2013-07-16 23:55:00
7:15 PM,86.0,68.0,55,30.13,10.0,SW,10.4,-,N/A,,Clear,230,2013-07-17 00:15:00
7:35 PM,84.2,68.0,58,30.14,10.0,SW,6.9,-,N/A,,Clear,230,2013-07-17 00:35:00
7:55 PM,84.2,66.2,55,30.13,10.0,SW,8.1,-,N/A,,Clear,220,2013-07-17 00:55:00
8:15 PM,82.4,66.2,58,30.13,10.0,SW,8.1,-,N/A,,Clear,230,2013-07-17 01:15:00
8:35 PM,82.4,66.2,58,30.14,10.0,SW,8.1,-,N/A,,Clear,220,2013-07-17 01:35:00
8:55 PM,80.6,66.2,61,30.15,10.0,SW,5.8,-,N/A,,Clear,220,2013-07-17 01:55:00
9:15 PM,80.6,66.2,61,30.16,10.0,WSW,5.8,-,N/A,,Clear,240,2013-07-17 02:15:00
9:35 PM,78.8,66.2,65,30.17,10.0,SW,6.9,-,N/A,,Clear,230,2013-07-17 02:35:00
9:55 PM,78.8,66.2,65,30.18,10.0,SW,6.9,-,N/A,,Clear,230,2013-07-17 02:55:00
10:15 PM,78.8,66.2,65,30.18,10.0,SW,6.9,-,N/A,,Clear,220,2013-07-17 03:15:00
10:35 PM,78.8,66.2,65,30.18,10.0,SW,6.9,-,N/A,,Clear,220,2013-07-17 03:35:00
10:55 PM,78.8,66.2,65,30.18,10.0,SW,6.9,-,N/A,,Clear,220,2013-07-17 03:55:00
11:15 PM,78.8,66.2,65,30.18,10.0,SW,8.1,-,N/A,,Clear,220,2013-07-17 04:15:00
11:35 PM,78.8,66.2,65,30.18,10.0,SW,6.9,-,N/A,,Clear,220,2013-07-17 04:35:00
11:55 PM,78.8,66.2,65,30.18,10.0,SW,8.1,-,N/A,,Clear,220,2013-07-17 04:55:00